This demonstration page uses our WeatherBlox Daily Observations layout. Learn more.

Left ArrowRight Arrow

44.89941, -97.11507

Hourly Observations for May 1, 2022

Temp ( °F °C ) Dew Point ( °F °C ) Humidity (%) Winds ( mph kmh ) Pressure ( in mb ) Visibility ( mi km ) Precip ( " mm )
12:53 am 00:53 Cloudy 36 2.2 34 1.1 93 93 NW 21 33 29.70 1006 10 16 0.00 0.00
1:53 am 01:53 Cloudy 36 2.2 34 1.1 93 93 NW 22 35 29.70 1006 10 16 0.00 0.00
2:53 am 02:53 Cloudy 36 2.2 34 1.1 93 93 NW 20 31 29.71 1006 10 16 0.00 0.00
3:53 am 03:53 Cloudy 36 2.2 34 1.1 93 93 NW 24 39 29.72 1007 10 16 0.00 0.00
4:06 am 04:06 Cloudy 36 2.2 34 1.1 93 93 NW 21 33 29.76 1008 10 16 0.00 0.00
4:53 am 04:53 Cloudy 36 2.2 34 1.1 93 93 NW 24 39 29.75 1007 10 16 0.00 0.00
5:53 am 05:53 Cloudy 36 2.2 34 1.1 93 93 NW 23 37 29.76 1008 10 16 0.00 0.00
6:53 am 06:53 Cloudy 36 2.2 34 1.1 93 93 NW 23 37 29.78 1008 10 16 0.00 0.00
7:53 am 07:53 Cloudy 36 2.2 34 1.1 93 93 NW 23 37 29.80 1009 10 16 0.00 0.00
8:53 am 08:53 Cloudy 37 2.8 34 1.1 89 89 NW 22 35 29.83 1010 10 16 0.00 0.00
9:53 am 09:53 Cloudy 37 2.8 35 1.7 93 93 NW 23 37 29.86 1011 10 16 0.00 0.00
10:53 am 10:53 Cloudy 39 3.9 36 2.2 89 89 NW 21 33 29.88 1012 10 16 0.00 0.00
11:38 am 11:38 Cloudy 39 3.9 36 2.2 89 89 NW 21 33 29.91 1013 10 16 0.00 0.00
11:53 am 11:53 Cloudy 39 3.9 36 2.2 89 89 NNW 25 41 29.91 1013 10 16 0.00 0.00
12:53 pm 12:53 Cloudy 40 4.4 36 2.2 86 86 NW 22 35 29.92 1013 10 16 0.00 0.00
1:53 pm 13:53 Cloudy 41 5 36 2.2 82 82 NW 17 28 29.94 1014 10 16 0.00 0.00
2:45 pm 14:45 Cloudy 42 5.6 36 2.2 79 79 NW 21 33 29.96 1015 10 16 0.00 0.00
2:53 pm 14:53 Cloudy 42 5.6 36 2.2 79 79 NW 23 37 29.96 1014 10 16 0.00 0.00
3:14 pm 15:14 Cloudy 42 5.6 36 2.2 79 79 NNW 24 39 29.96 1015 10 16 0.00 0.00
3:41 pm 15:41 Cloudy 42 5.6 35 1.7 76 76 NW 22 35 29.97 1015 10 16 0.00 0.00
3:53 pm 15:53 Cloudy 42 5.6 35 1.7 76 76 NW 21 33 29.97 1015 10 16 0.00 0.00
4:08 pm 16:08 Cloudy 42 5.6 35 1.7 76 76 NNW 21 33 29.97 1015 10 16 0.00 0.00
4:53 pm 16:53 Cloudy 42 5.6 35 1.7 76 76 NW 20 31 29.98 1015 10 16 0.00 0.00
5:53 pm 17:53 Cloudy 41 5 35 1.7 79 79 NNW 22 35 30.00 1016 10 16 0.00 0.00
6:53 pm 18:53 Cloudy 41 5 34 1.1 76 76 NNW 20 31 30.02 1017 10 16 0.00 0.00
7:53 pm 19:53 Cloudy 41 5 34 1.1 76 76 NNW 15 24 30.02 1017 10 16 0.00 0.00
8:53 pm 20:53 Cloudy 41 5 35 1.7 79 79 NNW 14 22 30.04 1017 10 16 0.00 0.00
9:53 pm 21:53 Cloudy 41 5 35 1.7 79 79 NNW 9 15 30.07 1018 10 16 0.00 0.00
10:53 pm 22:53 Cloudy 41 5 35 1.7 79 79 NNW 9 15 30.10 1019 10 16 0.00 0.00
11:53 pm 23:53 Cloudy 41 5 36 2.2 82 82 NNW 9 15 30.09 1019 10 16 0.00 0.00

Powered by AerisWeather